User: anonymous   Login
Location: Terra Rouge Observatory
(46.0000°N, 62.7500°W)
Time: 02:29:59
(UTC-04:00)
Language:

Landsat 5 - Orbit

View from above orbital plane
View from above orbital plane
View from above satellite
View from above satellite

Ground track
Ground track

The orbit data is extracted from the following two-line orbital elements,

1 14780U 84021A   17324.82604854  .00000196  00000-0  24208-4 0  9995
2 14780  98.0541  79.9663 0091033  14.5554 345.8253 14.91618035799226
Epoch (UTC): 20 November 2017 19:49:30
Eccentricity: 0.0091033
inclination: 98.0541°
perigee height: 529 km
apogee height: 656 km
right ascension of ascending node: 79.9663°
argument of perigee: 14.5554°
revolutions per day: 14.91618035
mean anomaly at epoch: 345.8253°
orbit number at epoch: 79922

The dashed part of the orbit path shows where the satellite is in the earth's shadow,  

DLR